EW2457 Weather Reports


time (UTC)temp
C
wind
direction
speed
KPH
gust
KPH
rain 1hr
cm
rain 24hr
cm
rain mn
cm
humidity
%
barometer
mb
20260507014525 15 53 3.2 11.3 0.00 0.00 0.00 75 1016.7
20260507013025 15 76 4.8 19.3 0.00 0.00 0.00 75 1016.7
20260507011524 16 232 3.2 11.3 0.00 0.00 0.00 73 1016.7
20260507010028 16 324 3.2 11.3 0.00 0.00 0.00 72 1016.7
20260507004522 17 326 3.2 11.3 0.00 0.00 0.00 70 1016.7
20260507003022 18 289 1.6 9.7 0.00 0.00 0.00 69 1016.8
20260507001520 17 88 1.6 6.4 0.00 0.00 0.00 70 1016.9
20260507000019 17 321 3.2 11.3 0.00 0.00 0.00 69 1016.9
20260506234519 18 155 3.2 9.7 0.00 0.00 0.00 69 1016.8
20260506233017 18 32 3.2 9.7 0.00 0.00 0.00 68 1017.1
20260506231516 18 125 3.2 12.9 0.00 0.00 0.00 68 1017.1
20260506230022 18 91 3.2 12.9 0.00 0.00 0.00 68 1017.2
20260506224513 18 30 3.2 9.7 0.00 0.00 0.00 68 1017.5
20260506223013 18 35 1.6 14.5 0.00 0.00 0.00 68 1017.6
20260506221512 19 86 3.2 12.9 0.00 0.00 0.00 66 1017.8
20260506220015 20 74 3.2 9.7 0.00 0.00 0.00 65 1018.0
20260506214510 20 349 3.2 9.7 0.00 0.00 0.00 64 1018.3
20260506213009 20 87 1.6 9.7 0.00 0.00 0.00 65 1018.2
20260506211508 20 316 1.6 6.4 0.00 0.00 0.00 63 1018.3
20260506210007 21 49 3.2 8.0 0.00 0.00 0.00 63 1018.3
20260506204505 20 160 1.6 8.0 0.00 0.00 0.00 64 1018.5
20260506203004 20 96 1.6 6.4 0.00 0.00 0.00 64 1018.6
20260506201514 20 121 1.6 4.8 0.00 0.00 0.00 63 1018.7
20260506200003 21 50 1.6 6.4 0.00 0.00 0.00 62 1018.8
20260506194505 21 141 1.6 6.4 0.00 0.00 0.00 62 1018.9
20260506193114 21 120 0.0 4.8 0.00 0.00 0.00 62 1018.9
20260506191615 20 217 0.0 6.4 0.00 0.00 0.00 64 1019.0
20260506190057 20 158 1.6 4.8 0.00 0.00 0.00 63 1019.2
20260506184608 20 149 0.0 4.8 0.00 0.00 0.00 66 1019.2
20260506183051 18 170 0.0 3.2 0.00 0.00 0.00 67 1019.3
20260506181550 18 278 0.0 4.8 0.00 0.00 0.00 66 1019.3
20260506180048 19 322 0.0 4.8 0.00 0.00 0.00 66 1019.2
20260506174544 18 145 0.0 3.2 0.00 0.03 0.00 68 1019.2
20260506173047 17 224 0.0 3.2 0.00 0.03 0.00 70 1019.3
20260506171554 17 226 0.0 4.8 0.00 0.03 0.00 69 1019.4
20260506170041 17 264 0.0 4.8 0.00 0.03 0.00 71 1019.4
20260506164535 16 153 0.0 3.2 0.00 0.03 0.00 71 1019.4
20260506163036 16 228 0.0 1.6 0.00 0.03 0.00 71 1019.4
20260506161535 16 79 0.0 1.6 0.00 0.03 0.00 72 1019.5
20260506160032 16 191 0.0 1.6 0.00 0.03 0.00 72 1019.4
20260506154527 15 160 0.0 3.2 0.00 0.03 0.00 73 1019.4
20260506153024 15 122 0.0 3.2 0.00 0.03 0.00 75 1019.4
20260506151524 13 131 0.0 1.6 0.00 0.03 0.00 76 1019.3
20260506150017 13 6 0.0 1.6 0.00 0.03 0.00 77 1019.3
20260506144516 13 16 0.0 4.8 0.00 0.03 0.00 77 1019.2
20260506143017 13 210 0.0 1.6 0.00 0.03 0.00 77 1019.2
20260506141511 12 222 0.0 1.6 0.00 0.03 0.00 77 1019.0
20260506140017 12 160 0.0 1.6 0.00 0.03 0.00 78 1018.9
20260506134507 12 160 0.0 1.6 0.00 0.03 0.00 77 1018.8
20260506133012 12 160 0.0 0.0 0.00 0.03 0.00 77 1018.7
20260506131507 12 160 0.0 0.0 0.00 0.03 0.00 78 1018.6
20260506130003 12 160 0.0 1.6 0.00 0.03 0.00 77 1018.6
20260506124501 12 163 0.0 1.6 0.00 0.03 0.00 77 1018.4
20260506123100 12 79 0.0 1.6 0.00 0.03 0.00 77 1018.4
20260506121601 12 79 0.0 1.6 0.00 0.03 0.00 77 1018.2
20260506121502 12 79 0.0 1.6 0.00 0.03 0.00 77 1018.2
20260506114558 12 116 0.0 1.6 0.00 0.03 0.00 77 1018.2
20260506113055 12 165 0.0 1.6 0.00 0.03 0.00 77 1018.0
20260506111554 12 32 0.0 1.6 0.00 0.03 0.00 77 1017.9
20260506110051 12 36 0.0 1.6 0.00 0.03 0.00 79 1017.8
20260506104555 12 356 0.0 1.6 0.00 0.03 0.00 79 1017.8
20260506103053 12 341 0.0 1.6 0.00 0.03 0.00 79 1017.7
20260506101549 11 316 0.0 0.0 0.00 0.03 0.00 79 1017.6
20260506094543 12 316 0.0 1.6 0.00 0.05 0.00 78 1017.7
20260506093042 12 323 0.0 3.2 0.00 0.05 0.00 78 1017.7
20260506091541 12 65 0.0 0.0 0.00 0.05 0.00 77 1017.5
20260506090039 12 337 0.0 1.6 0.00 0.05 0.00 77 1017.5
20260506084541 12 338 0.0 1.6 0.00 0.10 0.00 77 1017.6
20260506083038 12 23 0.0 1.6 0.00 0.10 0.00 77 1017.6
20260506081539 12 88 0.0 1.6 0.00 0.10 0.00 77 1017.6
20260506073032 12 10 0.0 0.0 0.00 0.18 0.00 77 1017.4
20260506071531 12 22 0.0 3.2 0.00 0.18 0.00 78 1017.3
20260506061524 13 39 0.0 1.6 0.00 0.20 0.18 77 1016.9
20260506044527 13 18 0.0 1.6 0.00 0.30 0.18 77 1016.3
20260506043017 12 30 0.0 1.6 0.00 0.30 0.18 77 1016.3
20260506041516 13 320 0.0 3.2 0.00 0.30 0.18 77 1016.2
20260506040012 13 260 0.0 3.2 0.00 0.30 0.18 77 1015.8
20260506034511 13 58 0.0 3.2 0.00 0.30 0.18 76 1015.6
20260506033010 13 5 0.0 6.4 0.00 0.30 0.18 76 1015.5
20260506031516 13 54 0.0 3.2 0.00 0.30 0.18 75 1015.3
20260506030019 13 273 0.0 6.4 0.00 0.30 0.18 75 1015.0
20260506024515 13 91 1.6 4.8 0.00 0.30 0.18 75 1015.0
20260506023004 14 191 0.0 8.0 0.00 0.30 0.18 75 1014.9
20260506021504 14 4 3.2 16.1 0.00 0.30 0.18 74 1014.7
20260506020004 14 13 3.2 9.7 0.00 0.30 0.18 74 1014.5